EW4052 Weather Reports


time (UTC)temp
C
wind
direction
speed
KPH
gust
KPH
rain 1hr
cm
rain 24hr
cm
rain mn
cm
humidity
%
barometer
mb
20260505001529 14 264 27.4 38.6 0.00 0.00 0.00 45 1002.3
20260505000030 14 250 32.2 41.8 0.00 0.00 0.00 46 1002.3
20260504234533 14 264 35.4 46.7 0.00 0.00 0.00 42 1002.3
20260504233027 15 235 30.6 38.6 0.00 0.00 0.00 42 1002.4
20260504231526 15 242 25.7 43.5 0.00 0.00 0.00 43 1002.4
20260504230026 15 261 35.4 53.1 0.00 0.00 0.00 36 1002.2
20260504224526 16 280 33.8 43.5 0.00 0.00 0.00 41 1002.0
20260504223024 16 246 32.2 43.5 0.00 0.00 0.00 41 1001.8
20260504221523 16 251 27.4 37.0 0.00 0.00 0.00 39 1001.4
20260504220023 16 252 27.4 40.2 0.00 0.00 0.00 41 1001.2
20260504214523 17 282 32.2 38.6 0.00 0.00 0.00 38 1000.7
20260504213021 17 265 32.2 41.8 0.00 0.00 0.00 37 1000.5
20260504211520 17 253 29.0 45.1 0.00 0.00 0.00 38 1000.5
20260504210022 18 248 27.4 46.7 0.00 0.00 0.00 40 1000.4
20260504204519 18 290 19.3 41.8 0.00 0.00 0.00 41 1000.4
20260504203024 18 292 27.4 38.6 0.00 0.00 0.00 39 1000.3
20260504201518 18 267 29.0 43.5 0.00 0.00 0.00 37 1000.3
20260504200017 19 248 24.1 35.4 0.00 0.00 0.00 40 1000.1
20260504194517 19 269 29.0 38.6 0.00 0.00 0.00 38 999.9
20260504193018 19 259 30.6 40.2 0.00 0.00 0.00 39 999.8
20260504191523 19 289 24.1 37.0 0.00 0.00 0.00 38 999.7
20260504190014 19 250 32.2 43.5 0.00 0.00 0.00 38 999.7
20260504184514 19 277 16.1 38.6 0.00 0.00 0.00 39 999.6
20260504183014 19 302 20.9 35.4 0.00 0.00 0.00 39 999.3
20260504181513 20 259 22.5 33.8 0.00 0.00 0.00 37 999.2
20260504180012 19 256 25.7 37.0 0.00 0.00 0.00 39 999.0
20260504174512 19 240 20.9 29.0 0.00 0.00 0.00 42 998.9
20260504173010 19 257 17.7 25.7 0.00 0.00 0.00 45 998.8
20260504171510 20 267 16.1 33.8 0.00 0.00 0.00 44 998.8
20260504081554 9 170 0.0 6.4 0.00 0.00 0.00 61 1000.9
20260504050015 11 189 0.0 6.4 0.00 0.00 0.00 49 1003.6
20260504044516 11 193 0.0 6.4 0.00 0.00 0.00 48 1003.8
20260504043011 12 238 0.0 0.0 0.00 0.00 0.00 47 1004.0
20260504041609 12 239 0.0 0.0 0.00 0.00 0.00 46 1004.2
20260504040010 12 241 0.0 0.0 0.00 0.00 0.00 47 1004.5
20260504034507 12 241 0.0 0.0 0.00 0.00 0.00 46 1004.6
20260504033006 13 241 0.0 0.0 0.00 0.00 0.00 46 1004.8
20260504031504 13 241 0.0 0.0 0.00 0.00 0.00 45 1004.9
20260504030004 13 241 0.0 0.0 0.00 0.00 0.00 44 1004.9
20260504024504 13 242 0.0 0.0 0.00 0.00 0.00 43 1004.9
20260504023003 13 242 0.0 0.0 0.00 0.00 0.00 44 1004.9
20260504021501 14 242 0.0 0.0 0.00 0.00 0.00 46 1004.9
20260504020001 15 242 0.0 0.0 0.00 0.00 0.00 39 1005.0
20260504014604 16 242 0.0 0.0 0.00 0.00 0.00 40 1004.9
20260504013112 17 242 0.0 1.6 0.00 0.00 0.00 40 1005.0
20260504011559 17 242 0.0 0.0 0.00 0.00 0.00 41 1005.0
20260504010114 18 242 1.6 6.4 0.00 0.00 0.00 47 1005.0
20260504004557 18 246 4.8 12.9 0.00 0.00 0.00 49 1005.1
20260504003055 18 246 8.0 16.1 0.00 0.00 0.00 46 1005.0